Regional Weather Roundup
Issued by NWS

Home | Current Version | Previous Version | Graphics & Text | Print | Product List | Glossary Off
Versions: 1 2 3 4 5 6 7 8 9 10 11 12 13 14 15 16 17 18 19 20 21 22 23 24 25 26 27 28 29 30 31 32 33 34 35 36 37 38 39 40 41 42 43 44 45 46 47 48 49 50

000
ASUS43 KLMK 291110
RWRKY
KENTUCKY REGIONAL WEATHER ROUNDUP
NATIONAL WEATHER SERVICE LOUISVILLE KY
600 AM EST MON DEC 29 2014

NOTE "FAIR" INDICATES FEW OR NO CLOUDS BELOW 12,000 FEET
WITH NO SIGNIFICANT WEATHER AND/OR OBSTRUCTIONS TO VISIBILITY.

KYZ001>023-026-027-061>063-070>075-291200-
WESTERN AND SOUTH CENTRAL KENTUCKY

CITY           SKY/WX    TMP DP  RH WIND       PRES   REMARKS
PADUCAH        CLOUDY    31  25  78 NE9       30.21S WCI  23
HENDERSON      CLOUDY    30  25  80 N8        30.22F WCI  23
OWENSBORO      CLOUDY    34  28  79 NE6       30.21F WCI  29
HOPKINSVILLE   CLOUDY    34  31  89 N7        30.17S WCI  27
BOWLING GREEN  CLOUDY    36  31  82 N3        30.17F
GLASGOW        CLOUDY    34  34 100 NE5       30.15F FOG     WCI  30
$$

KYZ024-025-028>034-038-045-046-053-291200-
NORTH CENTRAL KENTUCKY

CITY           SKY/WX    TMP DP  RH WIND       PRES   REMARKS
LOUISVILLE/SDF CLOUDY    34  29  82 N7        30.21R WCI  28
LOUISVILLE/LOU CLOUDY    34  28  79 N5        30.21S WCI  30
FORT KNOX      CLOUDY    32  29  90 N6        30.18S WCI  27
$$

KYZ035>037-039>044-047>052-055>060-089>105-291200-
NORTHEAST KENTUCKY

CITY           SKY/WX    TMP DP  RH WIND       PRES   REMARKS
LEXINGTON      MOCLDY    31  29  92 NE8       30.17R FOG     WCI  23
COVINGTON      CLOUDY    30  23  75 N9        30.22R WCI  22
FRANKFORT      CLOUDY    31  27  85 N5        30.19R WCI  26
$$

KYZ054-064>069-076>088-106>120-291200-
SOUTHEAST KENTUCKY

CITY           SKY/WX    TMP DP  RH WIND       PRES   REMARKS
JACKSON        FOG       35  33  92 VRB3      30.12S VSB 1/2
LONDON         CLOUDY    37  34  89 N7        30.12S FOG     WCI  32
SOMERSET       CLOUDY    34  34 100 NE6       30.14F FOG     WCI  29
MIDDLESBORO    LGT RAIN  42  42 100 CALM      30.09S
MONTICELLO     LGT SNOW  37  36  96 N6        30.15F FOG     WCI  32
$$




USA.gov is the U.S. government's official web portal to all federal, state and local government web resources and services.